TimeCST,TemperatureF,Dew PointF,Humidity,Sea Level PressureIn,VisibilityMPH,Wind Direction,Wind SpeedMPH,Gust SpeedMPH,PrecipitationIn,Events,Conditions,WindDirDegrees,DateUTC
12:15 AM,32.9,30.6,91,29.96,10.0,Calm,Calm,-,N/A,,Clear,0,2013-02-05 06:15:00
12:35 AM,32.9,30.4,90,29.96,10.0,Calm,Calm,-,N/A,,Clear,0,2013-02-05 06:35:00
12:55 AM,32.9,30.4,90,29.95,10.0,Calm,Calm,-,N/A,,Clear,0,2013-02-05 06:55:00
1:15 AM,31.6,30.0,94,29.94,10.0,Calm,Calm,-,N/A,,Clear,0,2013-02-05 07:15:00
1:35 AM,32.0,30.9,96,29.94,10.0,Calm,Calm,-,N/A,,Clear,0,2013-02-05 07:35:00
1:55 AM,31.5,30.7,97,29.94,10.0,Calm,Calm,-,N/A,,Clear,0,2013-02-05 07:55:00
2:15 AM,30.7,30.9,100,29.94,10.0,Calm,Calm,-,N/A,,Clear,0,2013-02-05 08:15:00
2:35 AM,30.7,30.9,100,29.94,10.0,Calm,Calm,-,N/A,,Clear,0,2013-02-05 08:35:00
2:55 AM,30.7,30.9,100,29.93,7.0,Calm,Calm,-,N/A,,Clear,0,2013-02-05 08:55:00
3:15 AM,30.2,30.4,100,29.94,7.0,Calm,Calm,-,N/A,,Clear,0,2013-02-05 09:15:00
3:35 AM,30.2,30.4,100,29.93,7.0,Calm,Calm,-,N/A,,Clear,0,2013-02-05 09:35:00
3:55 AM,30.7,30.9,100,29.93,7.0,Calm,Calm,-,N/A,,Clear,0,2013-02-05 09:55:00
4:15 AM,30.7,30.9,100,29.93,7.0,Calm,Calm,-,N/A,,Clear,0,2013-02-05 10:15:00
4:35 AM,30.7,30.9,100,29.92,7.0,Calm,Calm,-,N/A,,Clear,0,2013-02-05 10:35:00
4:55 AM,30.7,30.9,100,29.92,7.0,Calm,Calm,-,N/A,,Clear,0,2013-02-05 10:55:00
5:15 AM,30.6,30.9,100,29.93,7.0,Calm,Calm,-,N/A,,Clear,0,2013-02-05 11:15:00
5:35 AM,30.2,30.4,100,29.93,5.0,Calm,Calm,-,N/A,,Clear,0,2013-02-05 11:35:00
5:55 AM,30.4,30.6,100,29.93,5.0,Calm,Calm,-,N/A,,Clear,0,2013-02-05 11:55:00
6:15 AM,28.4,28.6,100,29.93,7.0,Calm,Calm,-,N/A,,Clear,0,2013-02-05 12:15:00
6:35 AM,29.7,29.8,100,29.93,7.0,Calm,Calm,-,N/A,,Clear,0,2013-02-05 12:35:00
6:55 AM,30.6,30.7,100,29.94,5.0,Calm,Calm,-,N/A,,Clear,0,2013-02-05 12:55:00
7:15 AM,30.7,30.9,100,29.95,5.0,Calm,Calm,-,N/A,,Clear,0,2013-02-05 13:15:00
7:35 AM,30.4,30.6,100,29.96,4.0,Calm,Calm,-,N/A,,Clear,0,2013-02-05 13:35:00
7:55 AM,30.0,30.2,100,29.96,5.0,Calm,Calm,-,N/A,,Clear,0,2013-02-05 13:55:00
8:15 AM,-9999,-9999,N/A,29.97,5.0,Calm,Calm,-,N/A,,Clear,0,2013-02-05 14:15:00
8:35 AM,33.8,33.8,100,29.98,7.0,Calm,Calm,-,N/A,,Clear,0,2013-02-05 14:35:00
8:55 AM,36.1,36.1,100,29.98,10.0,SW,4.6,-,N/A,,Clear,220,2013-02-05 14:55:00
9:15 AM,38.5,37.9,98,29.98,10.0,WSW,4.6,-,N/A,,Clear,250,2013-02-05 15:15:00
9:35 AM,41.7,38.1,87,29.98,10.0,WSW,8.1,-,N/A,,Clear,240,2013-02-05 15:35:00
9:55 AM,43.7,36.0,74,29.99,10.0,WSW,9.2,-,N/A,,Clear,250,2013-02-05 15:55:00
10:15 AM,46.4,36.1,67,29.99,10.0,West,8.1,-,N/A,,Clear,260,2013-02-05 16:15:00
10:35 AM,49.1,36.9,63,30.00,10.0,West,8.1,-,N/A,,Clear,270,2013-02-05 16:35:00
10:55 AM,50.9,37.0,59,30.00,10.0,West,10.4,-,N/A,,Clear,270,2013-02-05 16:55:00
11:15 AM,51.1,36.3,57,30.00,10.0,West,9.2,-,N/A,,Clear,260,2013-02-05 17:15:00
11:35 AM,51.6,36.5,56,30.01,10.0,WNW,5.8,-,N/A,,Clear,290,2013-02-05 17:35:00
11:55 AM,53.6,37.8,55,30.00,10.0,West,9.2,-,N/A,,Clear,270,2013-02-05 17:55:00
12:15 PM,55.8,38.8,53,30.00,10.0,West,10.4,-,N/A,,Clear,260,2013-02-05 18:15:00
12:35 PM,55.8,37.2,50,30.00,10.0,West,8.1,-,N/A,,Clear,280,2013-02-05 18:35:00
12:55 PM,55.9,36.3,48,29.99,10.0,WNW,8.1,-,N/A,,Clear,290,2013-02-05 18:55:00
1:15 PM,56.5,35.6,46,29.99,10.0,WNW,5.8,9.2,N/A,,Clear,290,2013-02-05 19:15:00
1:35 PM,56.3,35.6,46,29.99,10.0,NW,5.8,-,N/A,,Clear,320,2013-02-05 19:35:00
1:55 PM,57.9,36.3,44,29.99,10.0,NW,6.9,-,N/A,,Clear,310,2013-02-05 19:55:00
2:15 PM,58.3,35.2,42,29.99,10.0,North,6.9,-,N/A,,Clear,350,2013-02-05 20:15:00
2:35 PM,58.3,34.5,41,29.99,10.0,NNW,8.1,-,N/A,,Clear,330,2013-02-05 20:35:00
2:55 PM,59.9,33.4,37,29.99,10.0,NNW,3.5,-,N/A,,Clear,330,2013-02-05 20:55:00
3:15 PM,60.6,34.0,37,29.98,10.0,NNW,3.5,-,N/A,,Clear,330,2013-02-05 21:15:00
3:35 PM,60.8,33.8,36,29.99,10.0,North,3.5,-,N/A,,Clear,350,2013-02-05 21:35:00
3:55 PM,60.8,32.0,34,29.99,10.0,NNW,3.5,-,N/A,,Clear,330,2013-02-05 21:55:00
4:15 PM,60.8,32.2,34,29.99,10.0,NNW,3.5,-,N/A,,Clear,330,2013-02-05 22:15:00
4:35 PM,60.8,31.8,34,29.99,10.0,Calm,Calm,-,N/A,,Clear,0,2013-02-05 22:35:00
4:55 PM,60.8,31.6,33,29.99,10.0,ENE,3.5,-,N/A,,Clear,60,2013-02-05 22:55:00
5:15 PM,60.3,31.1,33,29.99,10.0,Calm,Calm,-,N/A,,Clear,0,2013-02-05 23:15:00
5:35 PM,58.3,30.7,35,30.00,10.0,Calm,Calm,-,N/A,,Clear,0,2013-02-05 23:35:00
5:55 PM,57.0,32.2,39,30.00,10.0,Calm,Calm,-,N/A,,Clear,0,2013-02-05 23:55:00
6:15 PM,54.0,34.0,47,30.00,10.0,Calm,Calm,-,N/A,,Clear,0,2013-02-06 00:15:00
6:35 PM,50.5,36.0,57,30.01,10.0,Calm,Calm,-,N/A,,Clear,0,2013-02-06 00:35:00
6:55 PM,50.0,33.3,53,30.02,10.0,Calm,Calm,-,N/A,,Clear,0,2013-02-06 00:55:00
7:15 PM,47.3,35.4,63,30.03,10.0,Calm,Calm,-,N/A,,Clear,0,2013-02-06 01:15:00
7:35 PM,43.5,32.7,66,30.04,10.0,NE,3.5,-,N/A,,Clear,40,2013-02-06 01:35:00
7:55 PM,42.8,32.5,67,30.04,10.0,ENE,3.5,-,N/A,,Clear,70,2013-02-06 01:55:00
8:15 PM,41.4,32.2,70,30.04,10.0,Calm,Calm,-,N/A,,Clear,0,2013-02-06 02:15:00
8:35 PM,40.8,32.9,73,30.05,10.0,Calm,Calm,-,N/A,,Clear,0,2013-02-06 02:35:00
8:55 PM,39.9,33.1,77,30.05,10.0,Calm,Calm,-,N/A,,Clear,0,2013-02-06 02:55:00
9:15 PM,39.2,33.3,79,30.06,10.0,Calm,Calm,-,N/A,,Clear,0,2013-02-06 03:15:00
9:35 PM,38.5,33.6,83,30.07,10.0,Calm,Calm,-,N/A,,Clear,0,2013-02-06 03:35:00
9:55 PM,37.9,33.1,83,30.07,10.0,Calm,Calm,-,N/A,,Clear,0,2013-02-06 03:55:00
10:15 PM,37.9,33.8,85,30.07,10.0,ENE,3.5,-,N/A,,Clear,70,2013-02-06 04:15:00
10:35 PM,36.3,33.1,88,30.07,10.0,Calm,Calm,-,N/A,,Clear,0,2013-02-06 04:35:00
10:55 PM,35.6,32.7,89,30.07,10.0,ENE,3.5,-,N/A,,Clear,70,2013-02-06 04:55:00
11:15 PM,36.1,32.5,87,30.06,10.0,ENE,3.5,-,N/A,,Clear,70,2013-02-06 05:15:00
11:35 PM,36.9,32.9,86,30.06,10.0,ENE,4.6,-,N/A,,Clear,60,2013-02-06 05:35:00
11:55 PM,41.4,31.8,69,30.07,10.0,Calm,Calm,-,N/A,,Clear,0,2013-02-06 05:55:00